GW3097 Weather Reports


Display with metric or nautical units.
time (UTC)temp
F
wind
direction
speed
MPH
gust
MPH
rain 1hr
in
rain 24hr
in
rain mn
in
humidity
%
barometer
mb
20260506091109 63 268 0.0 0.0 0.00 0.00 0.00 56 1038.0
20260506090607 62 264 0.0 0.0 0.00 0.00 0.00 57 1038.2
20260506085600 61 283 0.0 0.0 0.00 0.00 0.00 60 1038.4
20260506085056 61 282 0.0 0.0 0.00 0.00 0.00 59 1038.2
20260506084553 62 273 0.0 0.0 0.00 0.00 0.00 58 1038.3
20260506084049 62 262 0.0 0.0 0.00 0.00 0.00 56 1038.4
20260506083547 62 258 0.0 0.0 0.00 0.00 0.00 56 1038.6
20260506083044 62 263 0.0 0.0 0.00 0.00 0.00 56 1038.5
20260506082541 62 263 0.0 0.0 0.00 0.00 0.00 55 1038.3
20260506082036 63 258 0.0 0.0 0.00 0.00 0.00 55 1038.5
20260506081535 63 249 0.0 0.0 0.00 0.00 0.00 54 1038.3
20260506081032 63 265 0.0 0.0 0.00 0.00 0.00 53 1038.3
20260506080530 64 254 0.0 0.0 0.00 0.00 0.00 53 1038.1
20260506073513 64 262 0.0 0.0 0.00 0.00 0.00 53 1038.4
20260506073010 64 262 0.0 0.0 0.00 0.00 0.00 53 1038.5
20260506072507 64 260 0.0 0.0 0.00 0.00 0.00 53 1038.5
20260506072005 64 258 0.0 0.0 0.00 0.00 0.00 52 1038.7
20260506071503 64 259 0.0 0.0 0.00 0.00 0.00 52 1038.8
20260506070959 63 262 0.0 0.0 0.00 0.00 0.00 54 1038.8
20260506070456 62 264 0.0 0.0 0.00 0.00 0.00 55 1038.6
20260506062434 62 269 0.0 0.0 0.00 0.00 0.00 58 1038.8
20260506061930 61 271 0.0 0.0 0.00 0.00 0.00 60 1038.7
20260506061426 61 271 0.0 0.0 0.00 0.00 0.00 61 1038.9
20260506060925 62 264 0.0 0.0 0.00 0.00 0.00 60 1039.0
20260506060423 62 257 0.0 1.0 0.00 0.00 0.00 59 1039.1
20260506051354 62 268 0.0 0.0 0.00 0.00 0.00 61 1039.3
20260506050851 62 268 0.0 0.0 0.00 0.00 0.00 62 1039.4
20260506050349 62 266 0.0 0.0 0.00 0.00 0.00 62 1039.5
20260506044839 63 264 0.0 0.0 0.00 0.00 0.00 59 1039.3
20260506044337 63 263 0.0 0.0 0.00 0.00 0.00 59 1039.5
20260506043834 63 264 0.0 0.0 0.00 0.00 0.00 59 1039.5
20260506043331 63 263 0.0 1.0 0.00 0.00 0.00 58 1039.6
20260506042829 63 274 0.0 0.0 0.00 0.00 0.00 59 1039.5
20260506042328 63 276 0.0 1.0 0.00 0.00 0.00 60 1039.5
20260506041827 63 283 1.0 1.0 0.00 0.00 0.00 61 1039.5
20260506041323 62 290 1.0 2.0 0.00 0.00 0.00 61 1039.5
20260506040820 63 286 1.0 2.0 0.00 0.00 0.00 61 1039.6
20260506040318 63 273 0.0 1.0 0.00 0.00 0.00 60 1039.7
20260506035814 63 280 0.0 1.0 0.00 0.03 0.03 60 1039.7
20260506035311 63 271 1.0 1.0 0.00 0.03 0.03 61 1039.6
20260506034809 63 256 1.0 1.0 0.00 0.03 0.03 61 1039.6
20260506034306 63 264 0.0 0.0 0.00 0.03 0.03 59 1039.6
20260506033802 64 269 0.0 0.0 0.00 0.03 0.03 58 1039.5
20260506033259 64 272 0.0 0.0 0.00 0.03 0.03 57 1039.5
20260506032756 64 270 0.0 0.0 0.00 0.03 0.03 57 1039.6
20260506032253 64 272 0.0 1.0 0.00 0.03 0.03 57 1039.5
20260506031750 64 273 1.0 2.0 0.00 0.03 0.03 57 1039.4
20260506031247 64 280 1.0 2.0 0.00 0.03 0.03 57 1039.5
20260506030745 65 271 2.0 2.0 0.00 0.03 0.03 57 1039.5
20260506030243 65 283 2.0 2.0 0.00 0.03 0.03 55 1039.5
20260506025739 66 274 1.0 1.0 0.00 0.03 0.03 54 1039.4
20260506025235 66 271 1.0 1.0 0.00 0.03 0.03 54 1039.4
20260506024732 66 276 1.0 1.0 0.00 0.03 0.03 54 1039.3
20260506024228 67 275 1.0 1.0 0.00 0.03 0.03 54 1039.5
20260506023720 67 267 0.0 0.0 0.00 0.03 0.03 53 1039.5
20260506023217 67 269 1.0 1.0 0.00 0.03 0.03 52 1039.5
20260506022714 68 268 0.0 1.0 0.00 0.03 0.03 51 1039.5
20260506022212 68 263 1.0 1.0 0.00 0.03 0.03 51 1039.5
20260506021709 68 260 0.0 1.0 0.00 0.03 0.03 51 1039.7
20260506021206 69 254 1.0 1.0 0.00 0.03 0.03 50 1039.5
20260506020703 69 245 2.0 2.0 0.00 0.03 0.03 49 1039.5
20260506020201 69 250 2.0 3.0 0.00 0.03 0.03 49 1039.7
20260506015658 69 260 1.0 2.0 0.00 0.03 0.03 49 1039.5
20260506015156 69 260 2.0 3.0 0.00 0.03 0.03 48 1039.4
20260506014653 69 261 1.0 3.0 0.00 0.03 0.03 48 1039.4
20260506014148 69 248 2.0 2.0 0.00 0.03 0.03 48 1039.3
20260506013646 69 262 1.0 2.0 0.00 0.03 0.03 49 1039.5
20260506013143 69 266 0.0 2.0 0.00 0.03 0.03 49 1039.3
20260506012639 69 264 1.0 1.0 0.00 0.03 0.03 49 1039.2
20260506012135 70 264 1.0 1.0 0.00 0.03 0.03 48 1039.1
20260506011628 71 243 2.0 2.0 0.00 0.03 0.03 46 1038.9
20260506011124 71 244 1.0 2.0 0.00 0.03 0.03 46 1038.9
20260506010623 70 239 0.0 2.0 0.00 0.03 0.03 47 1038.9
20260506010119 71 254 0.0 1.0 0.00 0.03 0.03 46 1038.7
20260506005616 71 260 0.0 1.0 0.00 0.03 0.03 45 1038.8
20260506005113 71 254 1.0 1.0 0.00 0.03 0.03 44 1038.7
20260506004610 72 257 0.0 2.0 0.00 0.03 0.03 44 1038.7
20260506004106 72 225 4.0 7.0 0.00 0.03 0.03 43 1038.9
20260506003602 72 245 1.0 3.0 0.00 0.03 0.03 43 1038.7
20260506003059 73 256 0.0 2.0 0.00 0.03 0.03 43 1038.7
20260506002554 73 228 2.0 3.0 0.00 0.03 0.03 43 1038.7
20260506002051 73 255 1.0 2.0 0.00 0.03 0.03 43 1038.6
20260506001547 73 259 1.0 2.0 0.00 0.03 0.03 43 1038.6
20260506001045 73 249 2.0 2.0 0.00 0.03 0.03 43 1038.6
20260506000542 73 258 1.0 3.0 0.00 0.03 0.03 43 1038.6
20260506000039 73 247 1.0 2.0 0.00 0.03 0.03 44 1038.5
20260505235537 73 245 1.0 2.0 0.00 0.03 0.03 44 1038.4
20260505235034 73 241 1.0 3.0 0.00 0.03 0.03 43 1038.3
20260505234531 73 249 2.0 6.0 0.00 0.03 0.03 42 1038.3
20260505234027 73 224 3.0 3.0 0.00 0.03 0.03 43 1038.5
20260505233525 73 258 2.0 6.0 0.00 0.03 0.03 43 1038.1
20260505233022 73 258 2.0 6.0 0.00 0.03 0.03 43 1038.3
20260505232520 73 209 2.0 3.0 0.00 0.03 0.03 44 1038.3
20260505232018 73 241 2.0 3.0 0.00 0.03 0.03 44 1038.3
20260505231514 73 242 3.0 4.0 0.00 0.03 0.03 44 1038.3
20260505231013 73 234 3.0 6.0 0.00 0.03 0.03 45 1038.2
20260505230510 73 252 4.0 4.0 0.00 0.03 0.03 46 1038.3
20260505230007 72 263 1.0 3.0 0.00 0.03 0.03 47 1038.1
20260505225504 72 258 3.0 4.0 0.00 0.03 0.03 46 1037.8
20260505224959 73 241 2.0 4.0 0.00 0.03 0.03 47 1038.4
20260505224456 73 263 2.0 3.0 0.00 0.03 0.03 47 1038.0
20260505223954 73 262 2.0 3.0 0.00 0.03 0.03 47 1038.0
20260505223450 73 259 2.0 3.0 0.00 0.03 0.03 47 1037.9
20260505222947 73 246 3.0 3.0 0.00 0.03 0.03 45 1037.5
20260505222443 73 250 2.0 4.0 0.00 0.03 0.03 46 1037.9
20260505221939 73 258 2.0 2.0 0.00 0.03 0.03 46 1037.9
20260505221437 73 252 1.0 3.0 0.00 0.03 0.03 46 1038.0
20260505220933 73 249 1.0 2.0 0.00 0.03 0.03 46 1038.1
20260505220430 73 225 3.0 3.0 0.00 0.03 0.03 45 1037.8
20260505215928 73 224 4.0 6.0 0.00 0.03 0.03 45 1038.0
20260505215426 73 225 4.0 7.0 0.00 0.03 0.03 45 1037.9
20260505214924 73 208 4.0 6.0 0.00 0.03 0.03 45 1037.9
20260505214421 73 231 5.0 6.0 0.00 0.03 0.03 44 1037.9
20260505213918 73 228 4.0 6.0 0.00 0.03 0.03 44 1037.8
20260505213416 73 213 2.0 6.0 0.00 0.03 0.03 44 1037.9
20260505212912 73 224 6.0 7.0 0.00 0.03 0.03 43 1037.8
20260505212409 74 193 5.0 7.0 0.00 0.03 0.03 42 1038.0
20260505211905 73 185 6.0 9.0 0.00 0.03 0.03 42 1038.0
20260505211403 75 199 5.0 10.0 0.00 0.03 0.03 42 1038.0
20260505210859 75 233 9.0 11.0 0.00 0.03 0.03 40 1037.7
20260505210356 75 191 7.0 16.0 0.00 0.03 0.03 40 1038.0
20260505205853 75 224 11.0 17.0 0.00 0.03 0.03 40 1037.7
20260505205351 75 211 10.0 30.0 0.00 0.03 0.03 39 1037.5
20260505204848 77 242 4.0 14.0 0.00 0.03 0.03 34 1037.7
20260505204346 77 234 8.0 15.0 0.00 0.03 0.03 34 1037.1
20260505203843 77 245 9.0 14.0 0.00 0.03 0.03 34 1037.1
20260505203339 77 208 11.0 16.0 0.00 0.03 0.03 33 1037.2
20260505202836 77 244 9.0 19.0 0.00 0.03 0.03 33 1037.1
20260505202332 77 227 3.0 11.0 0.00 0.03 0.03 33 1037.1
20260505201829 77 237 9.0 11.0 0.00 0.03 0.03 32 1037.1
20260505201326 77 241 11.0 22.0 0.00 0.03 0.03 32 1036.8
20260505200824 78 251 9.0 19.0 0.00 0.03 0.03 32 1037.0
20260505200321 78 189 14.0 17.0 0.00 0.03 0.03 31 1037.1
20260505195816 78 216 12.0 22.0 0.00 0.03 0.03 31 1037.0
20260505195314 78 245 7.0 23.0 0.00 0.03 0.03 32 1037.0
20260505194811 78 248 18.0 21.0 0.00 0.03 0.03 32 1037.2
20260505194308 79 264 5.0 15.0 0.00 0.03 0.03 31 1037.0
20260505193803 80 212 8.0 23.0 0.00 0.03 0.03 29 1036.9
20260505193301 79 226 12.0 24.0 0.00 0.03 0.03 31 1037.2
20260505192759 79 220 14.0 17.0 0.00 0.03 0.03 31 1037.1
20260505192257 78 249 13.0 17.0 0.00 0.03 0.03 32 1037.2
20260505191754 78 236 7.0 16.0 0.00 0.03 0.03 32 1037.3
20260505191253 77 225 14.0 19.0 0.00 0.03 0.03 31 1037.3
20260505190749 78 217 12.0 21.0 0.00 0.03 0.03 30 1037.5
20260505190244 78 214 14.0 21.0 0.00 0.03 0.03 30 1037.7
20260505185740 77 221 6.0 17.0 0.00 0.03 0.03 32 1037.8
20260505185237 78 225 15.0 22.0 0.00 0.03 0.03 31 1037.9
20260505184733 78 238 16.0 35.0 0.00 0.03 0.03 32 1038.1
20260505184231 78 209 14.0 27.0 0.00 0.03 0.03 31 1037.9
20260505183727 79 211 11.0 15.0 0.00 0.03 0.03 32 1038.1
20260505183224 78 219 11.0 22.0 0.00 0.03 0.03 34 1038.0
20260505182720 78 262 16.0 25.0 0.00 0.03 0.03 33 1038.4
20260505182218 78 248 14.0 22.0 0.00 0.03 0.03 34 1038.1
20260505181714 78 196 19.0 31.0 0.00 0.03 0.03 32 1038.4
20260505181212 78 248 11.0 21.0 0.00 0.03 0.03 33 1038.5
20260505180708 78 206 11.0 19.0 0.00 0.03 0.03 33 1038.6
20260505180205 78 190 6.0 18.0 0.00 0.03 0.03 36 1038.3
20260505175701 77 207 15.0 22.0 0.00 0.03 0.03 36 1038.6
20260505175157 77 203 13.0 19.0 0.00 0.03 0.03 36 1039.0
20260505174654 77 244 17.0 21.0 0.00 0.03 0.03 35 1038.8
20260505174150 77 204 16.0 24.0 0.00 0.03 0.03 35 1038.7
20260505173647 78 214 13.0 26.0 0.00 0.03 0.03 34 1038.8
20260505173144 78 216 11.0 23.0 0.00 0.03 0.03 35 1038.8
20260505172641 77 266 12.0 21.0 0.00 0.03 0.03 35 1038.4
20260505172138 78 241 4.0 14.0 0.00 0.03 0.03 39 1038.5
20260505171637 78 291 7.0 22.0 0.00 0.03 0.03 38 1038.7
20260505171135 78 225 7.0 23.0 0.00 0.03 0.03 38 1038.6
20260505170632 77 199 9.0 18.0 0.00 0.03 0.03 39 1038.6
20260505170128 77 220 13.0 18.0 0.00 0.03 0.03 37 1038.6
20260505165624 77 214 9.0 16.0 0.00 0.03 0.03 38 1038.7
20260505165120 77 230 11.0 23.0 0.00 0.03 0.03 39 1038.9
20260505164615 77 242 12.0 24.0 0.00 0.03 0.03 38 1038.9
20260505164113 77 173 6.0 17.0 0.00 0.03 0.03 39 1039.2
20260505163612 76 243 14.0 17.0 0.00 0.03 0.03 39 1039.0
20260505163109 77 208 10.0 18.0 0.00 0.03 0.03 39 1039.1
20260505162606 77 167 6.0 11.0 0.00 0.03 0.03 40 1038.9
20260505162104 76 215 6.0 16.0 0.00 0.03 0.03 41 1039.2
20260505161600 76 232 11.0 19.0 0.00 0.03 0.03 41 1039.1
20260505161058 76 232 8.0 19.0 0.00 0.03 0.03 41 1039.4
20260505160555 76 180 11.0 19.0 0.00 0.03 0.03 41 1039.4
20260505153032 75 249 7.0 15.0 0.00 0.03 0.03 43 1039.6
20260505152529 74 251 9.0 17.0 0.00 0.03 0.03 43 1039.7
20260505152024 74 251 9.0 17.0 0.00 0.03 0.03 44 1039.9
20260505151520 73 232 9.0 15.0 0.00 0.03 0.03 45 1039.8
20260505151018 73 241 11.0 16.0 0.00 0.03 0.03 44 1039.9
20260505150514 73 238 11.0 18.0 0.00 0.03 0.03 45 1039.8
20260505140439 71 223 5.0 15.0 0.00 0.03 0.03 49 1040.1
20260505124852 64 252 3.0 6.0 0.00 0.03 0.03 62 1040.6
20260505124349 64 240 3.0 7.0 0.00 0.03 0.03 66 1040.7
20260505123845 64 235 5.0 7.0 0.00 0.03 0.03 64 1040.5
20260505123342 63 233 3.0 4.0 0.00 0.03 0.03 66 1040.4
20260505122837 62 215 3.0 6.0 0.00 0.03 0.03 67 1040.4
20260505122330 62 255 4.0 6.0 0.00 0.03 0.03 68 1040.6
20260505121826 62 243 2.0 3.0 0.00 0.03 0.03 69 1040.4
20260505121324 61 242 3.0 3.0 0.00 0.03 0.03 69 1040.4
20260505120819 62 251 2.0 2.0 0.00 0.03 0.03 65 1040.3
20260505120316 62 234 2.0 3.0 0.00 0.03 0.03 66 1040.3
20260505115814 62 248 1.0 2.0 0.00 0.03 0.03 69 1040.4
20260505115312 61 264 0.0 2.0 0.00 0.03 0.03 71 1040.4
20260505114810 59 250 1.0 3.0 0.00 0.03 0.03 68 1040.5
20260505114306 59 255 1.0 2.0 0.00 0.03 0.03 73 1040.6
20260505113802 58 254 1.0 1.0 0.00 0.03 0.03 74 1040.6
20260505113259 58 241 1.0 2.0 0.00 0.03 0.03 78 1040.7
20260505112754 58 257 0.0 1.0 0.00 0.03 0.03 75 1040.5
20260505112252 58 262 0.0 2.0 0.00 0.03 0.03 75 1040.5
20260505111747 59 252 0.0 1.0 0.00 0.03 0.03 77 1040.3
20260505111243 58 243 2.0 2.0 0.00 0.03 0.03 70 1040.4
20260505110739 56 258 1.0 2.0 0.00 0.03 0.03 73 1040.3
20260505110237 56 263 1.0 1.0 0.00 0.03 0.03 77 1040.1
20260505102212 53 267 0.0 0.0 0.00 0.03 0.03 79 1040.1
20260505101711 53 258 0.0 1.0 0.00 0.03 0.03 79 1040.0
20260505101206 54 256 0.0 1.0 0.00 0.03 0.03 78 1039.8
20260505100703 54 262 1.0 1.0 0.00 0.03 0.03 76 1039.8
20260505100200 54 265 1.0 1.0 0.00 0.03 0.03 77 1039.9
20260505095655 54 255 0.0 1.0 0.00 0.03 0.03 78 1039.7
20260505095154 54 263 0.0 1.0 0.00 0.03 0.03 78 1039.7
20260505094649 54 255 1.0 1.0 0.00 0.03 0.03 78 1039.7
20260505094145 55 239 3.0 3.0 0.00 0.03 0.03 76 1039.6
20260505093642 55 253 2.0 2.0 0.00 0.03 0.03 76 1039.6
20260505093140 55 257 3.0 3.0 0.00 0.03 0.03 76 1039.3
20260505092636 55 246 1.0 2.0 0.00 0.03 0.03 75 1039.4
20260505092135 55 258 2.0 3.0 0.00 0.03 0.03 75 1039.5
20260505091632 55 269 1.0 2.0 0.00 0.03 0.03 76 1039.4